Find Starlink 11204

NORAD ID: 60931 Int'l Des: 2024-155 Owner: SPXS Country: US Constellation: starlink operational
LEOCIRCULAR

Aktuelle Ansicht

3D-Globus wird geladen...

Über Starlink 11204

Beschreibung wird geladen...

Nächste Überflüge

Passes for default location (London). Set your location on the main map for personalized predictions.

Höhenverlauf

Loading altitude history...

Zweizeiliger Elementsatz

1 60931U 24155H 26158.52215397 -.00000616 00000-0 -22672-6 0 9992
2 60931 53.1597 258.2612 0000980 84.2816 275.8314 15.69695064102513
Epoch: 7. Juni 2026 • Age: 14 hours

Aktueller Status

Höhe 360.3 km
Geschwindigkeit 7.69 km/s
Subsatellitenpunkt 3.64°N, 130.63°E
Startdatum 31. Aug. 2024
Alter 1.7 years
Typ internet

Technische Details

Klassifizierung Payload
Masse 960.00 kg
Trockenmasse 910.00 kg
Gesamtmasse 960.00 kg
Länge 0.30 m
Durchmesser 4.10 m
Spannweite 29.00 m
Form Box + pan
Hersteller SPXS
Bus-Typ Starlink V2MD
Phasenstatus In Orbit
Besitzer/Staat SPXS/US

Most Searched